Regional Weather Roundup
Issued by NWS

Home | Current Version | Previous Version | Text Only | Print | Product List | Glossary Off
Versions: 1 2 3 4 5 6 7 8 9 10 11 12 13 14 15 16 17 18 19 20 21 22 23 24 25 26 27 28 29 30 31 32 33 34 35 36 37 38 39 40 41 42 43 44 45 46 47 48 49 50

000
ASUS43 KLSX 110510
RWRMO

WEATHER SUMMARY FOR MISSOURI
NATIONAL WEATHER SERVICE SPRINGFIELD MO
1100 PM CST WED FEB 10 2016

NOTE: "FAIR" INDICATES FEW OR NO CLOUDS BELOW 12,000 FEET WITH NO
       SIGNIFICANT WEATHER AND/OR OBSTRUCTIONS TO VISIBILITY.
       CURRENT SKY AND/OR WEATHER CONDITIONS ARE NOT AVAILABLE FOR
       CHILLICOTHE AND FARMINGTON.

MOZ001>031-035>038-043-044-053-054-110600-
...NORTHERN AND WESTERN MISSOURI...

CITY           SKY/WX    TMP DP  RH WIND       PRES   REMARKS
KANSAS CTY INT CLEAR     27  22  81 NE12      30.06R WCI  17
KANSAS C DTWN  CLOUDY    29  22  75 E9        30.06R WCI  20
LEE`S SUMMIT   CLEAR     27  21  78 E12       30.04R WCI  17
ST JOSEPH      CLEAR     27  21  78 NE12      30.10R WCI  17
CHILLICOTHE      N/A     25  19  78 NE8       30.15R WCI  16
KIRKSVILLE     CLOUDY    20  16  84 NE7       30.15R WCI  11

$$
MOZ066>068-077>081-088>096-101>105-110600-
...SOUTHWEST MISSOURI...

CITY           SKY/WX    TMP DP  RH WIND       PRES   REMARKS
SPRINGFIELD    CLEAR     35  18  49 SE8       29.97R WCI  29
JOPLIN         CLEAR     37  24  59 E6        29.96R

$$
MOZ032>034-039>042-045>050-055>058-069>072-110600-
...CENTRAL MISSOURI...

CITY           SKY/WX    TMP DP  RH WIND       PRES   REMARKS
COLUMBIA       CLOUDY    24  19  81 E10       30.08R WCI  14
JEFFERSON CITY CLOUDY    25  19  78 E8        30.11R WCI  16
ROLLA          CLOUDY    23  18  81 E10       30.04S WCI  12
SEDALIA        CLOUDY    28  20  71 E9        30.07R WCI  19
WHITEMAN AFB   CLOUDY    26  21  80 E7        30.04R WCI  18
WARRENSBURG    CLOUDY    27  21  80 NE6       30.06R WCI  20
OSAGE BEACH    CLEAR     25  16  68 E6        30.04F WCI  18

$$
MOZ051-052-059>065-110600-
...EAST CENTRAL MISSOURI...

CITY           SKY/WX    TMP DP  RH WIND       PRES   REMARKS
ST LOUIS INTL  CLOUDY    24  19  81 E6        30.16S WCI  17
SPIRIT OF STL  CLOUDY    23  19  85 E3        30.15S
ST CHARLES     CLOUDY    22  19  89 E6        30.17R WCI  14

$$
MOZ072>076-082>087-097>100-106>115-110600-
...SOUTH CENTRAL AND SOUTHEAST MISSOURI...

CITY           SKY/WX    TMP DP  RH WIND       PRES   REMARKS
CAPE GIRARDEAU CLOUDY    24  19  81 E5        30.16S WCI  18
FARMINGTON     CLOUDY    21  17  84 CALM      30.11R
POPLAR BLUFF   CLEAR     24  18  77 NE5       30.13S WCI  18
WEST PLAINS    CLEAR     27  10  49 E6        30.05S WCI  20

$$



USA.gov is the U.S. government's official web portal to all federal, state and local government web resources and services.